User: anonymous   Login
Location: Unspecified
(0.0000°N, 0.0000°E)
Time: 20:45:05
(UTC+00:00)
Language:

Altair - Orbit

View from above orbital plane
View from above orbital plane
View from above satellite
View from above satellite

Ground track
Ground track

The orbit data is extracted from the following two-line orbital elements,

1 00050U 60009B   17056.54247097 -.00000043  00000-0  40148-3 0  9995
2 00050  47.2301 270.1920 0113681 325.9256  33.4274 12.20099626523197
Epoch (UTC): 25 February 2017 13:01:09
Eccentricity: 0.0113681
inclination: 47.2301°
perigee height: 1501 km
apogee height: 1683 km
right ascension of ascending node: 270.1920°
argument of perigee: 325.9256°
revolutions per day: 12.20099626
mean anomaly at epoch: 33.4274°
orbit number at epoch: 52319

The dashed part of the orbit path shows where the satellite is in the earth's shadow,  

DLR